Time,TemperatureF,DewpointF,PressureIn,WindDirection,WindDirectionDegrees,WindSpeedMPH,WindSpeedGustMPH,Humidity,HourlyPrecipIn,Conditions,Clouds,dailyrainin,SolarRadiationWatts/m^2,SoftwareType,DateUTC
2013-06-15 00:00:00,81.9,76.6,29.92,West,270,6.0,14.0,84,0.00,,,0.00,0,Wunderground v.1.15,2013-06-15 04:00:00,
2013-06-15 00:01:00,81.9,76.2,29.92,West,271,6.0,14.0,83,0.00,,,0.00,0,Wunderground v.1.15,2013-06-15 04:01:00,
2013-06-15 00:02:00,81.8,76.1,29.92,West,276,6.0,14.0,83,0.00,,,0.00,0,Wunderground v.1.15,2013-06-15 04:02:00,
2013-06-15 00:03:00,81.8,76.1,29.91,West,276,6.0,14.0,83,0.00,,,0.00,0,Wunderground v.1.15,2013-06-15 04:03:00,
2013-06-15 00:04:00,81.7,76.0,29.91,West,274,7.0,14.0,83,0.00,,,0.00,0,Wunderground v.1.15,2013-06-15 04:04:00,
2013-06-15 00:10:00,81.7,76.0,29.91,West,271,7.0,14.0,83,0.00,,,0.00,0,Wunderground v.1.15,2013-06-15 04:10:00,
2013-06-15 00:14:00,81.6,76.3,29.91,West,272,8.0,14.0,84,0.00,,,0.00,0,Wunderground v.1.15,2013-06-15 04:14:00,
2013-06-15 00:20:00,81.6,76.3,29.91,West,276,8.0,8.0,84,0.00,,,0.00,0,Wunderground v.1.15,2013-06-15 04:20:00,
2013-06-15 00:25:00,81.5,76.2,29.91,West,279,7.0,14.0,84,0.00,,,0.00,0,Wunderground v.1.15,2013-06-15 04:25:00,
2013-06-15 00:31:00,81.3,76.0,29.90,WNW,288,6.0,14.0,84,0.00,,,0.00,0,Wunderground v.1.15,2013-06-15 04:31:00,
2013-06-15 00:37:00,81.2,76.3,29.91,West,279,6.0,14.0,85,0.00,,,0.00,0,Wunderground v.1.15,2013-06-15 04:37:00,
2013-06-15 00:42:00,81.2,76.6,29.92,WNW,286,7.0,14.0,86,0.00,,,0.00,0,Wunderground v.1.15,2013-06-15 04:42:00,
2013-06-15 00:48:00,81.1,76.5,29.91,West,277,8.0,14.0,86,0.00,,,0.00,0,Wunderground v.1.15,2013-06-15 04:48:00,
2013-06-15 00:54:00,81.0,76.4,29.91,West,277,6.0,14.0,86,0.00,,,0.00,0,Wunderground v.1.15,2013-06-15 04:54:00,
2013-06-15 01:00:00,80.9,76.0,29.91,West,266,7.0,7.0,85,0.00,,,0.00,0,Wunderground v.1.15,2013-06-15 05:00:00,
2013-06-15 01:05:00,81.0,76.4,29.92,West,267,7.0,14.0,86,0.00,,,0.00,0,Wunderground v.1.15,2013-06-15 05:05:00,
2013-06-15 01:11:00,80.9,76.3,29.92,West,267,6.0,14.0,86,0.00,,,0.00,0,Wunderground v.1.15,2013-06-15 05:11:00,
2013-06-15 01:17:00,80.7,76.1,29.92,West,267,5.0,14.0,86,0.00,,,0.00,0,Wunderground v.1.15,2013-06-15 05:17:00,
2013-06-15 01:23:00,80.6,76.0,29.92,West,270,4.0,14.0,86,0.00,,,0.00,0,Wunderground v.1.15,2013-06-15 05:23:00,
2013-06-15 01:28:00,80.6,76.0,29.92,West,275,5.0,14.0,86,0.00,,,0.00,0,Wunderground v.1.15,2013-06-15 05:28:00,
2013-06-15 01:34:00,80.6,76.0,29.92,WNW,285,7.0,14.0,86,0.00,,,0.00,0,Wunderground v.1.15,2013-06-15 05:34:00,
2013-06-15 01:40:00,80.6,76.4,29.92,West,279,6.0,14.0,87,0.00,,,0.00,0,Wunderground v.1.15,2013-06-15 05:40:00,
2013-06-15 01:46:00,80.5,76.3,29.92,West,279,6.0,14.0,87,0.00,,,0.00,0,Wunderground v.1.15,2013-06-15 05:46:00,
2013-06-15 01:52:00,80.4,76.2,29.92,West,279,5.0,14.0,87,0.00,,,0.00,0,Wunderground v.1.15,2013-06-15 05:52:00,
2013-06-15 01:58:00,80.5,76.3,29.92,West,275,5.0,14.0,87,0.00,,,0.00,0,Wunderground v.1.15,2013-06-15 05:58:00,
2013-06-15 02:04:00,80.4,76.2,29.92,West,275,5.0,14.0,87,0.00,,,0.00,0,Wunderground v.1.15,2013-06-15 06:04:00,
2013-06-15 02:09:00,80.4,76.2,29.92,West,275,5.0,14.0,87,0.00,,,0.00,0,Wunderground v.1.15,2013-06-15 06:09:00,
2013-06-15 02:15:00,80.4,76.2,29.92,West,275,5.0,14.0,87,0.00,,,0.00,0,Wunderground v.1.15,2013-06-15 06:15:00,
2013-06-15 02:21:00,80.4,76.2,29.92,West,275,4.0,14.0,87,0.00,,,0.00,0,Wunderground v.1.15,2013-06-15 06:21:00,
2013-06-15 02:27:00,80.4,76.5,29.92,West,275,6.0,14.0,88,0.00,,,0.00,0,Wunderground v.1.15,2013-06-15 06:27:00,
2013-06-15 02:32:00,80.5,76.6,29.92,West,274,6.0,14.0,88,0.00,,,0.00,0,Wunderground v.1.15,2013-06-15 06:32:00,
2013-06-15 02:38:00,80.5,76.6,29.91,WNW,283,7.0,14.0,88,0.00,,,0.00,0,Wunderground v.1.15,2013-06-15 06:38:00,
2013-06-15 02:44:00,80.5,76.6,29.91,WNW,284,7.0,14.0,88,0.00,,,0.00,0,Wunderground v.1.15,2013-06-15 06:44:00,
2013-06-15 02:50:00,80.4,76.5,29.90,WNW,286,7.0,14.0,88,0.00,,,0.00,0,Wunderground v.1.15,2013-06-15 06:50:00,
2013-06-15 02:56:00,80.4,76.5,29.90,West,279,7.0,14.0,88,0.00,,,0.00,0,Wunderground v.1.15,2013-06-15 06:56:00,
2013-06-15 03:02:00,80.4,76.5,29.90,West,279,6.0,14.0,88,0.00,,,0.00,0,Wunderground v.1.15,2013-06-15 07:02:00,
2013-06-15 03:08:00,80.3,76.4,29.90,West,280,6.0,14.0,88,0.00,,,0.00,0,Wunderground v.1.15,2013-06-15 07:08:00,
2013-06-15 03:13:00,80.1,76.2,29.90,West,281,5.0,14.0,88,0.00,,,0.00,0,Wunderground v.1.15,2013-06-15 07:13:00,
2013-06-15 03:19:00,80.0,76.1,29.90,WNW,294,5.0,14.0,88,0.00,,,0.00,0,Wunderground v.1.15,2013-06-15 07:19:00,
2013-06-15 03:25:00,79.9,76.4,29.89,WNW,290,5.0,14.0,89,0.00,,,0.00,0,Wunderground v.1.15,2013-06-15 07:25:00,
2013-06-15 03:31:00,80.0,76.1,29.89,West,279,6.0,14.0,88,0.00,,,0.00,0,Wunderground v.1.15,2013-06-15 07:31:00,
2013-06-15 03:36:00,80.0,76.1,29.90,WNW,286,7.0,14.0,88,0.00,,,0.00,0,Wunderground v.1.15,2013-06-15 07:36:00,
2013-06-15 03:42:00,80.1,76.6,29.90,WNW,286,7.0,14.0,89,0.00,,,0.00,0,Wunderground v.1.15,2013-06-15 07:42:00,
2013-06-15 03:48:00,80.1,76.6,29.89,WNW,283,8.0,14.0,89,0.00,,,0.00,0,Wunderground v.1.15,2013-06-15 07:48:00,
2013-06-15 03:54:00,80.1,76.6,29.90,WNW,284,8.0,14.0,89,0.00,,,0.00,0,Wunderground v.1.15,2013-06-15 07:54:00,
2013-06-15 03:59:00,80.0,76.5,29.90,WNW,294,8.0,14.0,89,0.00,,,0.00,0,Wunderground v.1.15,2013-06-15 07:59:00,
2013-06-15 04:05:00,79.9,76.4,29.90,WNW,291,7.0,14.0,89,0.00,,,0.00,0,Wunderground v.1.15,2013-06-15 08:05:00,
2013-06-15 04:11:00,79.8,76.3,29.90,WNW,292,6.0,14.0,89,0.00,,,0.00,0,Wunderground v.1.15,2013-06-15 08:11:00,
2013-06-15 04:17:00,79.5,75.6,29.90,WNW,292,3.0,14.0,88,0.00,,,0.00,0,Wunderground v.1.15,2013-06-15 08:17:00,
2013-06-15 04:22:00,79.3,75.4,29.90,WNW,292,2.0,14.0,88,0.00,,,0.00,0,Wunderground v.1.15,2013-06-15 08:22:00,
2013-06-15 04:28:00,79.2,75.7,29.91,WNW,293,4.0,14.0,89,0.00,,,0.00,0,Wunderground v.1.15,2013-06-15 08:28:00,
2013-06-15 04:34:00,79.1,75.6,29.91,WNW,293,3.0,14.0,89,0.00,,,0.00,0,Wunderground v.1.15,2013-06-15 08:34:00,
2013-06-15 04:40:00,79.0,75.5,29.91,WNW,293,2.0,14.0,89,0.00,,,0.00,0,Wunderground v.1.15,2013-06-15 08:40:00,
2013-06-15 04:45:00,79.0,75.5,29.90,WNW,293,3.0,14.0,89,0.00,,,0.00,0,Wunderground v.1.15,2013-06-15 08:45:00,
2013-06-15 04:51:00,79.1,75.9,29.91,WNW,293,2.0,14.0,90,0.00,,,0.00,0,Wunderground v.1.15,2013-06-15 08:51:00,
2013-06-15 04:57:00,79.3,76.1,29.92,WNW,293,3.0,14.0,90,0.00,,,0.00,0,Wunderground v.1.15,2013-06-15 08:57:00,
2013-06-15 05:03:00,79.5,76.3,29.92,WNW,293,5.0,14.0,90,0.00,,,0.00,0,Wunderground v.1.15,2013-06-15 09:03:00,
2013-06-15 05:09:00,79.5,76.3,29.93,WNW,292,6.0,14.0,90,0.00,,,0.00,0,Wunderground v.1.15,2013-06-15 09:09:00,
2013-06-15 05:15:00,79.7,76.5,29.93,WNW,292,6.0,14.0,90,0.00,,,0.00,0,Wunderground v.1.15,2013-06-15 09:15:00,
2013-06-15 05:20:00,79.7,76.5,29.93,WNW,292,7.0,7.0,90,0.00,,,0.00,0,Wunderground v.1.15,2013-06-15 09:20:00,
2013-06-15 05:26:00,79.6,76.4,29.93,WNW,292,5.0,14.0,90,0.00,,,0.00,0,Wunderground v.1.15,2013-06-15 09:26:00,
2013-06-15 05:31:00,79.6,76.4,29.93,WNW,292,4.0,14.0,90,0.00,,,0.00,0,Wunderground v.1.15,2013-06-15 09:31:00,
2013-06-15 05:37:00,79.5,76.3,29.93,WNW,292,4.0,14.0,90,0.00,,,0.00,0,Wunderground v.1.15,2013-06-15 09:37:00,
2013-06-15 05:43:00,79.6,76.4,29.93,WNW,292,4.0,14.0,90,0.00,,,0.00,0,Wunderground v.1.15,2013-06-15 09:43:00,
2013-06-15 05:49:00,79.4,76.2,29.93,WNW,292,3.0,14.0,90,0.00,,,0.00,0,Wunderground v.1.15,2013-06-15 09:49:00,
2013-06-15 05:54:00,79.2,75.7,29.93,WNW,292,1.0,14.0,89,0.00,,,0.00,0,Wunderground v.1.15,2013-06-15 09:54:00,
2013-06-15 06:00:00,79.0,75.8,29.93,WNW,292,0.0,14.0,90,0.00,,,0.00,0,Wunderground v.1.15,2013-06-15 10:00:00,
2013-06-15 06:06:00,78.8,75.6,29.93,WNW,292,0.0,14.0,90,0.00,,,0.00,0,Wunderground v.1.15,2013-06-15 10:06:00,
2013-06-15 06:11:00,78.6,75.4,29.94,WNW,292,0.0,14.0,90,0.00,,,0.00,0,Wunderground v.1.15,2013-06-15 10:11:00,
2013-06-15 06:17:00,78.5,75.3,29.94,WNW,292,0.0,14.0,90,0.00,,,0.00,0,Wunderground v.1.15,2013-06-15 10:17:00,
2013-06-15 06:23:00,78.3,75.5,29.94,WNW,292,0.0,14.0,91,0.00,,,0.00,5,Wunderground v.1.15,2013-06-15 10:23:00,
2013-06-15 06:29:00,78.2,75.4,29.94,WNW,292,0.0,14.0,91,0.00,,,0.00,7,Wunderground v.1.15,2013-06-15 10:29:00,
2013-06-15 06:34:00,78.2,75.4,29.95,WNW,292,0.0,14.0,91,0.00,,,0.00,9,Wunderground v.1.15,2013-06-15 10:34:00,
2013-06-15 06:40:00,78.1,75.6,29.95,WNW,292,0.0,14.0,92,0.00,,,0.00,7,Wunderground v.1.15,2013-06-15 10:40:00,
2013-06-15 06:46:00,78.1,75.6,29.95,WNW,292,0.0,14.0,92,0.00,,,0.00,0,Wunderground v.1.15,2013-06-15 10:46:00,
2013-06-15 06:52:00,78.1,75.6,29.95,WNW,292,0.0,14.0,92,0.00,,,0.00,7,Wunderground v.1.15,2013-06-15 10:52:00,
2013-06-15 06:57:00,78.2,75.7,29.95,WNW,292,0.0,14.0,92,0.00,,,0.00,18,Wunderground v.1.15,2013-06-15 10:57:00,
2013-06-15 07:03:00,78.4,76.2,29.95,WNW,292,1.0,14.0,93,0.00,,,0.00,12,Wunderground v.1.15,2013-06-15 11:03:00,
2013-06-15 07:09:00,78.6,76.1,29.95,WNW,292,0.0,14.0,92,0.00,,,0.00,5,Wunderground v.1.15,2013-06-15 11:09:00,
2013-06-15 07:15:00,78.7,76.2,29.95,WNW,292,0.0,14.0,92,0.00,,,0.01,0,Wunderground v.1.15,2013-06-15 11:15:00,
2013-06-15 07:21:00,78.6,76.1,29.95,NE,34,2.0,14.0,92,0.00,,,0.01,18,Wunderground v.1.15,2013-06-15 11:21:00,
2013-06-15 07:27:00,78.5,76.0,29.95,NE,53,4.0,14.0,92,0.05,,,0.02,98,Wunderground v.1.15,2013-06-15 11:27:00,
2013-06-15 07:33:00,78.5,76.3,29.96,ENE,66,4.0,14.0,93,0.05,,,0.02,109,Wunderground v.1.15,2013-06-15 11:33:00,
2013-06-15 07:38:00,78.5,76.3,29.96,ENE,66,2.0,14.0,93,0.04,,,0.02,111,Wunderground v.1.15,2013-06-15 11:38:00,
2013-06-15 07:44:00,78.5,76.3,29.97,ENE,66,0.0,14.0,93,0.00,,,0.03,69,Wunderground v.1.15,2013-06-15 11:44:00,
2013-06-15 07:50:00,78.5,76.3,29.97,ENE,66,1.0,14.0,93,0.12,,,0.04,105,Wunderground v.1.15,2013-06-15 11:50:00,
2013-06-15 07:56:00,78.4,76.2,29.96,ENE,69,2.0,14.0,93,0.07,,,0.04,116,Wunderground v.1.15,2013-06-15 11:56:00,
2013-06-15 08:01:00,78.3,76.4,29.97,ENE,69,2.0,14.0,94,0.04,,,0.04,206,Wunderground v.1.15,2013-06-15 12:01:00,
2013-06-15 08:07:00,78.3,76.1,29.97,ENE,76,2.0,14.0,93,0.00,,,0.04,95,Wunderground v.1.15,2013-06-15 12:07:00,
2013-06-15 08:13:00,78.1,75.9,29.97,East,96,3.0,14.0,93,0.00,,,0.04,83,Wunderground v.1.15,2013-06-15 12:13:00,
2013-06-15 08:19:00,78.1,76.2,29.97,East,98,3.0,14.0,94,0.00,,,0.04,172,Wunderground v.1.15,2013-06-15 12:19:00,
2013-06-15 08:25:00,78.0,75.8,29.98,East,100,3.0,14.0,93,0.00,,,0.04,167,Wunderground v.1.15,2013-06-15 12:25:00,
2013-06-15 08:31:00,78.1,76.2,29.98,East,101,2.0,14.0,94,0.00,,,0.04,111,Wunderground v.1.15,2013-06-15 12:31:00,
2013-06-15 08:37:00,78.2,76.3,29.98,East,100,2.0,14.0,94,0.00,,,0.04,114,Wunderground v.1.15,2013-06-15 12:37:00,
2013-06-15 08:42:00,78.3,76.1,29.98,East,100,2.0,14.0,93,0.00,,,0.04,158,Wunderground v.1.15,2013-06-15 12:42:00,
2013-06-15 08:48:00,78.3,76.1,29.99,East,100,2.0,14.0,93,0.00,,,0.04,169,Wunderground v.1.15,2013-06-15 12:48:00,
2013-06-15 08:54:00,78.5,76.3,29.99,East,100,1.0,14.0,93,0.00,,,0.04,211,Wunderground v.1.15,2013-06-15 12:54:00,
2013-06-15 09:00:00,78.9,76.7,29.99,East,100,1.0,14.0,93,0.00,,,0.04,299,Wunderground v.1.15,2013-06-15 13:00:00,
2013-06-15 09:05:00,79.2,77.0,29.99,East,100,3.0,14.0,93,0.00,,,0.04,285,Wunderground v.1.15,2013-06-15 13:05:00,
2013-06-15 09:11:00,79.5,77.0,29.99,East,100,3.0,14.0,92,0.00,,,0.04,237,Wunderground v.1.15,2013-06-15 13:11:00,
2013-06-15 09:17:00,79.8,77.3,30.00,East,100,2.0,14.0,92,0.00,,,0.04,132,Wunderground v.1.15,2013-06-15 13:17:00,
2013-06-15 09:23:00,80.0,77.1,29.99,East,100,2.0,14.0,91,0.00,,,0.04,183,Wunderground v.1.15,2013-06-15 13:23:00,
2013-06-15 09:29:00,80.1,77.2,30.00,East,101,3.0,14.0,91,0.00,,,0.04,306,Wunderground v.1.15,2013-06-15 13:29:00,
2013-06-15 09:35:00,80.3,77.1,30.00,East,101,2.0,14.0,90,0.00,,,0.04,223,Wunderground v.1.15,2013-06-15 13:35:00,
2013-06-15 09:41:00,80.5,77.3,29.99,East,100,1.0,3.0,90,0.00,,,0.04,234,Wunderground v.1.15,2013-06-15 13:41:00,
2013-06-15 09:46:00,80.6,77.1,29.99,East,90,2.0,14.0,89,0.00,,,0.04,304,Wunderground v.1.15,2013-06-15 13:46:00,
2013-06-15 09:52:00,81.0,77.4,30.00,East,85,4.0,14.0,89,0.00,,,0.04,313,Wunderground v.1.15,2013-06-15 13:52:00,
2013-06-15 09:58:00,81.3,77.4,30.00,East,81,4.0,14.0,88,0.00,,,0.04,360,Wunderground v.1.15,2013-06-15 13:58:00,
2013-06-15 10:04:00,81.8,77.5,30.00,ESE,116,4.0,14.0,87,0.00,,,0.04,353,Wunderground v.1.15,2013-06-15 14:04:00,
2013-06-15 10:09:00,82.1,77.5,30.00,ESE,116,4.0,14.0,86,0.00,,,0.04,383,Wunderground v.1.15,2013-06-15 14:09:00,
2013-06-15 10:15:00,82.4,77.4,30.00,East,90,4.0,14.0,85,0.00,,,0.04,705,Wunderground v.1.15,2013-06-15 14:15:00,
2013-06-15 10:21:00,83.1,77.8,29.99,East,88,5.0,14.0,84,0.00,,,0.04,752,Wunderground v.1.15,2013-06-15 14:21:00,
2013-06-15 10:27:00,83.5,77.8,30.00,East,90,4.0,14.0,83,0.00,,,0.04,257,Wunderground v.1.15,2013-06-15 14:27:00,
2013-06-15 10:33:00,83.5,77.8,30.00,East,82,3.0,14.0,83,0.00,,,0.04,357,Wunderground v.1.15,2013-06-15 14:33:00,
2013-06-15 10:39:00,83.5,77.8,30.00,East,88,4.0,14.0,83,0.00,,,0.04,283,Wunderground v.1.15,2013-06-15 14:39:00,
2013-06-15 10:45:00,83.8,78.1,30.00,East,86,4.0,14.0,83,0.00,,,0.04,795,Wunderground v.1.15,2013-06-15 14:45:00,
2013-06-15 10:51:00,84.6,78.9,30.00,ENE,67,4.0,14.0,83,0.00,,,0.04,838,Wunderground v.1.15,2013-06-15 14:51:00,
2013-06-15 10:56:00,85.1,78.6,30.00,NE,54,4.0,14.0,81,0.00,,,0.04,860,Wunderground v.1.15,2013-06-15 14:56:00,
2013-06-15 11:02:00,85.3,78.0,30.00,East,89,5.0,14.0,79,0.00,,,0.04,853,Wunderground v.1.15,2013-06-15 15:02:00,
2013-06-15 11:08:00,85.5,78.2,30.00,ENE,69,5.0,14.0,79,0.00,,,0.04,846,Wunderground v.1.15,2013-06-15 15:08:00,
2013-06-15 11:14:00,85.5,78.2,30.00,ENE,78,4.0,14.0,79,0.00,,,0.04,902,Wunderground v.1.15,2013-06-15 15:14:00,
2013-06-15 11:20:00,86.1,78.0,30.00,East,97,3.0,14.0,77,0.00,,,0.04,905,Wunderground v.1.15,2013-06-15 15:20:00,
2013-06-15 11:26:00,86.4,78.3,30.00,East,90,4.0,14.0,77,0.00,,,0.04,914,Wunderground v.1.15,2013-06-15 15:26:00,
2013-06-15 11:32:00,86.7,78.6,30.00,ENE,78,5.0,14.0,77,0.00,,,0.04,949,Wunderground v.1.15,2013-06-15 15:32:00,
2013-06-15 11:37:00,87.2,79.1,30.00,East,95,4.0,14.0,77,0.00,,,0.04,993,Wunderground v.1.15,2013-06-15 15:37:00,
2013-06-15 11:43:00,87.0,78.1,30.00,ESE,109,5.0,14.0,75,0.00,,,0.04,1002,Wunderground v.1.15,2013-06-15 15:43:00,
2013-06-15 11:49:00,86.9,78.0,30.00,ESE,116,5.0,14.0,75,0.00,,,0.04,330,Wunderground v.1.15,2013-06-15 15:49:00,
2013-06-15 11:55:00,86.6,77.7,30.01,ESE,114,5.0,14.0,75,0.00,,,0.04,585,Wunderground v.1.15,2013-06-15 15:55:00,
2013-06-15 12:00:00,86.6,78.1,30.01,East,87,5.0,14.0,76,0.00,,,0.04,278,Wunderground v.1.15,2013-06-15 16:00:00,
2013-06-15 12:06:00,86.5,78.0,30.01,East,79,4.0,14.0,76,0.00,,,0.04,258,Wunderground v.1.15,2013-06-15 16:06:00,
2013-06-15 12:12:00,86.5,78.0,30.01,East,88,4.0,14.0,76,0.00,,,0.04,250,Wunderground v.1.15,2013-06-15 16:12:00,
2013-06-15 12:18:00,86.3,77.8,30.01,ESE,116,5.0,14.0,76,0.00,,,0.04,272,Wunderground v.1.15,2013-06-15 16:18:00,
2013-06-15 12:24:00,86.4,78.3,30.00,East,79,5.0,14.0,77,0.00,,,0.04,865,Wunderground v.1.15,2013-06-15 16:24:00,
2013-06-15 12:30:00,86.9,78.4,30.00,ESE,117,5.0,14.0,76,0.00,,,0.04,1020,Wunderground v.1.15,2013-06-15 16:30:00,
2013-06-15 12:36:00,87.3,78.8,30.00,East,91,6.0,14.0,76,0.00,,,0.04,1023,Wunderground v.1.15,2013-06-15 16:36:00,
2013-06-15 12:41:00,87.6,78.3,30.00,ESE,118,7.0,14.0,74,0.00,,,0.04,265,Wunderground v.1.15,2013-06-15 16:41:00,
2013-06-15 12:47:00,87.3,78.0,30.00,ENE,69,6.0,14.0,74,0.00,,,0.04,213,Wunderground v.1.15,2013-06-15 16:47:00,
2013-06-15 12:53:00,86.8,77.9,30.00,ENE,71,5.0,14.0,75,0.00,,,0.04,239,Wunderground v.1.15,2013-06-15 16:53:00,
2013-06-15 12:59:00,86.6,78.9,30.00,East,98,5.0,14.0,78,0.00,,,0.04,320,Wunderground v.1.15,2013-06-15 16:59:00,
2013-06-15 13:04:00,86.4,79.1,30.00,ENE,71,4.0,14.0,79,0.00,,,0.04,380,Wunderground v.1.15,2013-06-15 17:04:00,
2013-06-15 13:10:00,86.5,78.4,30.00,East,101,5.0,14.0,77,0.00,,,0.04,1065,Wunderground v.1.15,2013-06-15 17:10:00,
2013-06-15 13:16:00,87.3,79.2,29.99,ENE,57,5.0,14.0,77,0.00,,,0.04,1083,Wunderground v.1.15,2013-06-15 17:16:00,
2013-06-15 13:22:00,87.9,78.2,30.00,East,88,6.0,14.0,73,0.00,,,0.04,388,Wunderground v.1.15,2013-06-15 17:22:00,
2013-06-15 13:28:00,88.0,78.3,29.99,ENE,77,6.0,14.0,73,0.00,,,0.04,360,Wunderground v.1.15,2013-06-15 17:28:00,
2013-06-15 13:34:00,88.0,78.3,29.99,East,81,4.0,14.0,73,0.00,,,0.04,424,Wunderground v.1.15,2013-06-15 17:34:00,
2013-06-15 13:40:00,88.4,78.2,29.99,ESE,118,4.0,14.0,72,0.00,,,0.04,408,Wunderground v.1.15,2013-06-15 17:40:00,
2013-06-15 13:45:00,88.5,78.3,29.98,East,100,6.0,14.0,72,0.00,,,0.04,1000,Wunderground v.1.15,2013-06-15 17:45:00,
2013-06-15 13:51:00,89.0,77.9,29.98,ENE,69,5.0,14.0,70,0.00,,,0.04,1011,Wunderground v.1.15,2013-06-15 17:51:00,
2013-06-15 13:57:00,89.4,77.9,29.98,East,89,5.0,14.0,69,0.00,,,0.04,1032,Wunderground v.1.15,2013-06-15 17:57:00,
2013-06-15 14:03:00,89.3,77.8,29.98,East,93,4.0,14.0,69,0.00,,,0.04,274,Wunderground v.1.15,2013-06-15 18:03:00,
2013-06-15 14:08:00,89.0,77.9,29.98,East,86,5.0,14.0,70,0.00,,,0.04,297,Wunderground v.1.15,2013-06-15 18:08:00,
2013-06-15 14:14:00,88.6,78.0,29.98,East,97,6.0,14.0,71,0.00,,,0.04,211,Wunderground v.1.15,2013-06-15 18:14:00,
2013-06-15 14:20:00,88.1,78.3,29.98,ENE,58,7.0,14.0,73,0.00,,,0.04,225,Wunderground v.1.15,2013-06-15 18:20:00,
2013-06-15 14:26:00,87.8,78.5,29.98,ESE,104,7.0,14.0,74,0.00,,,0.04,262,Wunderground v.1.15,2013-06-15 18:26:00,
2013-06-15 14:32:00,87.8,78.1,29.98,East,101,5.0,14.0,73,0.00,,,0.04,281,Wunderground v.1.15,2013-06-15 18:32:00,
2013-06-15 14:38:00,87.9,78.2,29.97,East,98,4.0,14.0,73,0.00,,,0.04,220,Wunderground v.1.15,2013-06-15 18:38:00,
2013-06-15 14:44:00,87.7,78.0,29.98,ENE,71,5.0,14.0,73,0.00,,,0.04,144,Wunderground v.1.15,2013-06-15 18:44:00,
2013-06-15 14:49:00,87.4,78.1,29.98,East,86,7.0,14.0,74,0.00,,,0.04,135,Wunderground v.1.15,2013-06-15 18:49:00,
2013-06-15 14:55:00,87.2,77.9,29.97,ESE,117,6.0,14.0,74,0.00,,,0.04,84,Wunderground v.1.15,2013-06-15 18:55:00,
2013-06-15 15:01:00,86.7,78.6,29.97,ESE,111,7.0,10.0,77,0.29,,,0.06,72,Wunderground v.1.15,2013-06-15 19:01:00,
2013-06-15 15:07:00,85.3,78.4,29.97,ESE,109,8.0,14.0,80,0.36,,,0.09,107,Wunderground v.1.15,2013-06-15 19:07:00,
2013-06-15 15:12:00,84.2,78.5,29.97,ESE,105,6.0,14.0,83,0.15,,,0.10,91,Wunderground v.1.15,2013-06-15 19:12:00,
2013-06-15 15:18:00,83.4,78.1,29.97,East,86,6.0,14.0,84,0.06,,,0.10,125,Wunderground v.1.15,2013-06-15 19:18:00,
2013-06-15 15:24:00,83.0,77.3,29.96,ESE,104,7.0,14.0,83,0.04,,,0.10,121,Wunderground v.1.15,2013-06-15 19:24:00,
2013-06-15 15:30:00,82.9,77.2,29.97,East,98,6.0,6.0,83,0.00,,,0.10,109,Wunderground v.1.15,2013-06-15 19:30:00,
2013-06-15 15:36:00,83.0,76.6,29.97,ESE,120,7.0,14.0,81,0.00,,,0.10,53,Wunderground v.1.15,2013-06-15 19:36:00,
2013-06-15 15:42:00,83.0,76.6,29.98,ESE,106,7.0,14.0,81,0.00,,,0.10,49,Wunderground v.1.15,2013-06-15 19:42:00,
2013-06-15 15:48:00,82.9,76.1,29.98,ESE,104,6.0,14.0,80,0.00,,,0.10,98,Wunderground v.1.15,2013-06-15 19:48:00,
2013-06-15 15:53:00,82.9,75.7,29.98,ENE,68,7.0,14.0,79,0.00,,,0.10,76,Wunderground v.1.15,2013-06-15 19:53:00,
2013-06-15 15:59:00,83.0,75.4,29.99,ESE,115,7.0,14.0,78,0.00,,,0.10,49,Wunderground v.1.15,2013-06-15 19:59:00,
2013-06-15 16:05:00,83.1,75.5,29.99,ENE,71,6.0,14.0,78,0.00,,,0.10,77,Wunderground v.1.15,2013-06-15 20:05:00,
2013-06-15 16:11:00,83.2,74.8,29.98,East,89,7.0,14.0,76,0.00,,,0.10,104,Wunderground v.1.15,2013-06-15 20:11:00,
2013-06-15 16:16:00,83.3,74.9,29.99,ESE,108,6.0,14.0,76,0.00,,,0.10,54,Wunderground v.1.15,2013-06-15 20:16:00,
2013-06-15 16:22:00,83.4,75.0,29.99,East,92,5.0,14.0,76,0.00,,,0.10,49,Wunderground v.1.15,2013-06-15 20:22:00,
2013-06-15 16:28:00,83.4,75.4,29.98,East,87,4.0,14.0,77,0.00,,,0.10,72,Wunderground v.1.15,2013-06-15 20:28:00,
2013-06-15 16:34:00,83.4,75.0,29.98,East,84,4.0,14.0,76,0.00,,,0.10,70,Wunderground v.1.15,2013-06-15 20:34:00,
2013-06-15 16:40:00,83.3,75.3,29.98,East,90,4.0,14.0,77,0.00,,,0.10,62,Wunderground v.1.15,2013-06-15 20:40:00,
2013-06-15 16:46:00,83.2,74.8,29.98,SE,144,5.0,14.0,76,0.00,,,0.10,90,Wunderground v.1.15,2013-06-15 20:46:00,
2013-06-15 16:52:00,83.2,75.2,29.98,East,95,5.0,14.0,77,0.00,,,0.10,81,Wunderground v.1.15,2013-06-15 20:52:00,
2013-06-15 16:57:00,83.2,75.2,29.99,ESE,117,5.0,14.0,77,0.00,,,0.10,79,Wunderground v.1.15,2013-06-15 20:57:00,
2013-06-15 17:03:00,83.2,75.2,29.99,East,96,7.0,16.0,77,0.00,,,0.10,70,Wunderground v.1.15,2013-06-15 21:03:00,
2013-06-15 17:09:00,83.0,75.0,29.99,East,90,8.0,16.0,77,0.00,,,0.10,86,Wunderground v.1.15,2013-06-15 21:09:00,
2013-06-15 17:15:00,83.0,75.0,30.00,ESE,102,7.0,14.0,77,0.00,,,0.10,62,Wunderground v.1.15,2013-06-15 21:15:00,
2013-06-15 17:20:00,82.9,75.3,29.99,East,90,6.0,14.0,78,0.00,,,0.10,93,Wunderground v.1.15,2013-06-15 21:20:00,
2013-06-15 17:26:00,82.9,75.3,29.99,ESE,105,6.0,14.0,78,0.00,,,0.10,32,Wunderground v.1.15,2013-06-15 21:26:00,
2013-06-15 17:32:00,82.8,75.2,29.99,ESE,102,6.0,14.0,78,0.00,,,0.10,26,Wunderground v.1.15,2013-06-15 21:32:00,
2013-06-15 17:38:00,82.5,75.3,29.99,ENE,65,8.0,14.0,79,0.00,,,0.10,35,Wunderground v.1.15,2013-06-15 21:38:00,
2013-06-15 17:44:00,82.3,75.1,29.99,East,83,8.0,14.0,79,0.00,,,0.10,56,Wunderground v.1.15,2013-06-15 21:44:00,
2013-06-15 17:50:00,82.1,74.9,29.99,ESE,109,8.0,14.0,79,0.00,,,0.10,58,Wunderground v.1.15,2013-06-15 21:50:00,
2013-06-15 17:56:00,82.0,74.8,29.99,East,88,8.0,14.0,79,0.00,,,0.10,79,Wunderground v.1.15,2013-06-15 21:56:00,
2013-06-15 18:01:00,81.9,75.1,29.99,ENE,77,8.0,14.0,80,0.00,,,0.10,72,Wunderground v.1.15,2013-06-15 22:01:00,
2013-06-15 18:07:00,81.8,74.6,29.99,East,79,8.0,14.0,79,0.00,,,0.10,76,Wunderground v.1.15,2013-06-15 22:07:00,
2013-06-15 18:13:00,81.7,74.5,29.99,East,100,7.0,14.0,79,0.00,,,0.10,28,Wunderground v.1.15,2013-06-15 22:13:00,
2013-06-15 18:19:00,81.6,74.5,29.99,East,96,7.0,14.0,79,0.00,,,0.10,35,Wunderground v.1.15,2013-06-15 22:19:00,
2013-06-15 18:25:00,81.4,74.3,29.99,East,91,7.0,14.0,79,0.00,,,0.10,62,Wunderground v.1.15,2013-06-15 22:25:00,
2013-06-15 18:31:00,81.4,74.3,29.99,ESE,111,6.0,14.0,79,0.00,,,0.10,56,Wunderground v.1.15,2013-06-15 22:31:00,
2013-06-15 18:37:00,81.3,74.5,30.00,East,91,6.0,14.0,80,0.00,,,0.10,28,Wunderground v.1.15,2013-06-15 22:37:00,
2013-06-15 18:43:00,81.2,74.1,30.00,East,86,6.0,14.0,79,0.00,,,0.10,18,Wunderground v.1.15,2013-06-15 22:43:00,
2013-06-15 18:48:00,81.1,74.0,30.00,East,83,7.0,14.0,79,0.00,,,0.10,19,Wunderground v.1.15,2013-06-15 22:48:00,
2013-06-15 18:54:00,81.0,74.2,30.00,ENE,77,7.0,14.0,80,0.00,,,0.10,35,Wunderground v.1.15,2013-06-15 22:54:00,
2013-06-15 19:00:00,80.9,74.1,30.00,ENE,63,7.0,14.0,80,0.00,,,0.10,47,Wunderground v.1.15,2013-06-15 23:00:00,
2013-06-15 19:06:00,80.9,74.1,30.00,East,79,7.0,14.0,80,0.00,,,0.10,53,Wunderground v.1.15,2013-06-15 23:06:00,
2013-06-15 19:12:00,80.9,74.1,30.01,East,97,7.0,14.0,80,0.00,,,0.10,39,Wunderground v.1.15,2013-06-15 23:12:00,
2013-06-15 19:18:00,80.8,74.0,30.01,East,88,8.0,14.0,80,0.00,,,0.10,33,Wunderground v.1.15,2013-06-15 23:18:00,
2013-06-15 19:24:00,80.7,74.0,30.01,ESE,111,8.0,14.0,80,0.00,,,0.10,37,Wunderground v.1.15,2013-06-15 23:24:00,
2013-06-15 19:30:00,80.7,74.0,30.01,ENE,71,7.0,7.0,80,0.00,,,0.10,35,Wunderground v.1.15,2013-06-15 23:30:00,
2013-06-15 19:35:00,80.7,74.0,30.02,East,98,4.0,14.0,80,0.00,,,0.10,23,Wunderground v.1.15,2013-06-15 23:35:00,
2013-06-15 19:41:00,80.6,73.9,30.02,ESE,105,5.0,14.0,80,0.00,,,0.10,21,Wunderground v.1.15,2013-06-15 23:41:00,
2013-06-15 19:47:00,80.5,73.8,30.02,East,84,8.0,14.0,80,0.00,,,0.10,18,Wunderground v.1.15,2013-06-15 23:47:00,
2013-06-15 19:53:00,80.5,73.8,30.02,ESE,118,7.0,14.0,80,0.00,,,0.10,12,Wunderground v.1.15,2013-06-15 23:53:00,
2013-06-15 19:58:00,80.4,73.7,30.02,East,89,7.0,14.0,80,0.00,,,0.10,11,Wunderground v.1.15,2013-06-15 23:58:00,
2013-06-15 20:04:00,80.3,73.6,30.02,East,92,7.0,14.0,80,0.00,,,0.10,11,Wunderground v.1.15,2013-06-16 00:04:00,
2013-06-15 20:10:00,80.2,73.5,30.02,ENE,73,8.0,14.0,80,0.00,,,0.10,14,Wunderground v.1.15,2013-06-16 00:10:00,
2013-06-15 20:16:00,80.1,73.4,30.02,East,82,7.0,14.0,80,0.00,,,0.10,9,Wunderground v.1.15,2013-06-16 00:16:00,
2013-06-15 20:22:00,80.0,73.3,30.02,East,89,7.0,14.0,80,0.00,,,0.10,0,Wunderground v.1.15,2013-06-16 00:22:00,
2013-06-15 20:28:00,79.9,73.2,30.02,East,98,7.0,14.0,80,0.00,,,0.10,0,Wunderground v.1.15,2013-06-16 00:28:00,
2013-06-15 20:34:00,79.8,73.1,30.02,East,92,6.0,14.0,80,0.00,,,0.10,0,Wunderground v.1.15,2013-06-16 00:34:00,
2013-06-15 20:39:00,79.8,73.4,30.02,ESE,118,5.0,14.0,81,0.00,,,0.10,0,Wunderground v.1.15,2013-06-16 00:39:00,
2013-06-15 20:45:00,79.7,73.3,30.02,East,88,4.0,14.0,81,0.00,,,0.10,0,Wunderground v.1.15,2013-06-16 00:45:00,
2013-06-15 20:51:00,79.7,73.3,30.02,East,101,4.0,14.0,81,0.00,,,0.10,0,Wunderground v.1.15,2013-06-16 00:51:00,
2013-06-15 20:57:00,79.6,73.3,30.03,SE,128,4.0,14.0,81,0.00,,,0.10,0,Wunderground v.1.15,2013-06-16 00:57:00,
2013-06-15 21:02:00,79.5,73.2,30.02,East,92,4.0,14.0,81,0.00,,,0.10,0,Wunderground v.1.15,2013-06-16 01:02:00,
2013-06-15 21:08:00,79.4,73.1,30.02,ESE,109,5.0,14.0,81,0.00,,,0.10,0,Wunderground v.1.15,2013-06-16 01:08:00,
2013-06-15 21:14:00,79.3,73.3,30.02,East,88,5.0,14.0,82,0.00,,,0.10,0,Wunderground v.1.15,2013-06-16 01:14:00,
2013-06-15 21:20:00,79.2,73.2,30.03,ESE,109,4.0,14.0,82,0.00,,,0.10,0,Wunderground v.1.15,2013-06-16 01:20:00,
2013-06-15 21:26:00,79.0,73.0,30.03,ESE,107,5.0,14.0,82,0.00,,,0.10,0,Wunderground v.1.15,2013-06-16 01:26:00,
2013-06-15 21:32:00,79.0,73.0,30.03,East,98,5.0,14.0,82,0.00,,,0.10,0,Wunderground v.1.15,2013-06-16 01:32:00,
2013-06-15 21:38:00,78.9,72.9,30.03,ESE,114,4.0,14.0,82,0.00,,,0.10,0,Wunderground v.1.15,2013-06-16 01:38:00,
2013-06-15 21:43:00,78.8,72.8,30.03,ESE,105,3.0,14.0,82,0.00,,,0.10,0,Wunderground v.1.15,2013-06-16 01:43:00,
2013-06-15 21:49:00,78.7,72.7,30.03,ESE,104,3.0,14.0,82,0.00,,,0.10,0,Wunderground v.1.15,2013-06-16 01:49:00,
2013-06-15 21:55:00,78.7,72.7,30.04,East,94,3.0,14.0,82,0.00,,,0.10,0,Wunderground v.1.15,2013-06-16 01:55:00,
2013-06-15 22:01:00,78.6,73.0,30.04,East,100,2.0,14.0,83,0.00,,,0.10,0,Wunderground v.1.15,2013-06-16 02:01:00,
2013-06-15 22:06:00,78.6,73.0,30.04,East,98,3.0,14.0,83,0.00,,,0.10,0,Wunderground v.1.15,2013-06-16 02:06:00,
2013-06-15 22:12:00,78.5,72.9,30.04,East,98,3.0,14.0,83,0.00,,,0.10,0,Wunderground v.1.15,2013-06-16 02:12:00,
2013-06-15 22:18:00,78.5,72.9,30.04,East,96,3.0,14.0,83,0.00,,,0.10,0,Wunderground v.1.15,2013-06-16 02:18:00,
2013-06-15 22:24:00,78.5,72.9,30.04,ESE,117,4.0,14.0,83,0.00,,,0.10,0,Wunderground v.1.15,2013-06-16 02:24:00,
2013-06-15 22:30:00,78.5,72.9,30.04,East,90,5.0,14.0,83,0.00,,,0.10,0,Wunderground v.1.15,2013-06-16 02:30:00,
2013-06-15 22:36:00,78.5,73.3,30.05,ESE,103,5.0,14.0,84,0.00,,,0.10,0,Wunderground v.1.15,2013-06-16 02:36:00,
2013-06-15 22:42:00,78.5,73.3,30.05,East,92,4.0,14.0,84,0.00,,,0.10,0,Wunderground v.1.15,2013-06-16 02:42:00,
2013-06-15 22:47:00,78.5,73.3,30.05,East,98,4.0,14.0,84,0.00,,,0.10,0,Wunderground v.1.15,2013-06-16 02:47:00,
2013-06-15 22:53:00,78.5,73.3,30.05,East,90,4.0,14.0,84,0.00,,,0.10,0,Wunderground v.1.15,2013-06-16 02:53:00,
2013-06-15 22:59:00,78.5,73.3,30.04,ESE,104,4.0,14.0,84,0.00,,,0.10,0,Wunderground v.1.15,2013-06-16 02:59:00,
2013-06-15 23:05:00,78.6,73.4,30.05,East,97,4.0,14.0,84,0.00,,,0.10,0,Wunderground v.1.15,2013-06-16 03:05:00,
2013-06-15 23:10:00,78.6,73.4,30.05,East,96,4.0,4.0,84,0.00,,,0.10,0,Wunderground v.1.15,2013-06-16 03:10:00,
2013-06-15 23:16:00,78.6,73.4,30.05,ESE,111,4.0,14.0,84,0.00,,,0.10,0,Wunderground v.1.15,2013-06-16 03:16:00,
2013-06-15 23:22:00,78.6,73.4,30.05,ESE,102,5.0,14.0,84,0.00,,,0.10,0,Wunderground v.1.15,2013-06-16 03:22:00,
2013-06-15 23:28:00,78.7,73.5,30.05,ESE,106,5.0,14.0,84,0.00,,,0.10,0,Wunderground v.1.15,2013-06-16 03:28:00,
2013-06-15 23:34:00,78.7,73.5,30.06,East,98,4.0,14.0,84,0.00,,,0.10,0,Wunderground v.1.15,2013-06-16 03:34:00,
2013-06-15 23:40:00,78.7,73.5,30.06,East,98,4.0,14.0,84,0.00,,,0.10,0,Wunderground v.1.15,2013-06-16 03:40:00,
2013-06-15 23:46:00,78.7,73.5,30.05,East,86,6.0,14.0,84,0.00,,,0.10,0,Wunderground v.1.15,2013-06-16 03:46:00,
2013-06-15 23:51:00,78.7,73.5,30.05,ESE,106,6.0,14.0,84,0.00,,,0.10,0,Wunderground v.1.15,2013-06-16 03:51:00,
2013-06-15 23:57:00,78.7,73.5,30.05,East,90,5.0,14.0,84,0.00,,,0.10,0,Wunderground v.1.15,2013-06-16 03:57:00,